Precipitable_Water
0.30 0.31 0.31 0.32 0.32 0.33 0.34 0.35 0.36 0.37 0.37 0.38 0.38 0.38 0.39 0.38 0.35 0.33 0.33 0.34 0.33 0.33 0.32 0.32 0.31 0.31 0.31 0.30 0.30 0.31 0.31 0.31 0.30 0.30 0.29 0.28 0.28 0.27 0.27 0.26 0.26 0.25 0.24 0.23 0.22 0.21 0.20 0.20 0.20 0.20 0.20 0.19 0.18 0.17 0.17 0.17 0.17 0.17 0.17 0.17 0.17 0.16 0.17 0.18 0.18 0.19 0.17 0.16 0.17 0.17 0.17 0.18 0.18 0.18 0.18 0.18 0.18 0.18 0.19 0.19 0.20 0.20 0.20 0.20 0.21
0.30 0.31 0.32 0.33 0.33 0.34 0.35 0.36 0.37 0.36 0.37 0.38 0.38 0.39 0.39 0.37 0.35 0.34 0.34 0.33 0.33 0.33 0.32 0.31 0.30 0.30 0.29 0.28 0.29 0.29 0.28 0.28 0.28 0.29 0.28 0.27 0.27 0.26 0.26 0.26 0.25 0.25 0.24 0.24 0.24 0.23 0.21 0.21 0.21 0.21 0.21 0.20 0.20 0.19 0.18 0.18 0.17 0.17 0.17 0.16 0.17 0.16 0.15 0.16 0.17 0.17 0.15 0.15 0.14 0.14 0.15 0.17 0.17 0.18 0.18 0.18 0.18 0.18 0.18 0.19 0.19 0.19 0.19 0.19 0.20
0.30 0.32 0.32 0.33 0.34 0.35 0.36 0.37 0.37 0.38 0.38 0.39 0.39 0.38 0.37 0.36 0.35 0.34 0.33 0.33 0.32 0.32 0.31 0.30 0.29 0.29 0.28 0.27 0.27 0.27 0.28 0.28 0.27 0.27 0.27 0.26 0.26 0.26 0.26 0.26 0.25 0.25 0.25 0.25 0.25 0.25 0.24 0.23 0.22 0.22 0.22 0.22 0.21 0.20 0.20 0.18 0.18 0.17 0.17 0.16 0.15 0.16 0.16 0.16 0.16 0.16 0.14 0.15 0.15 0.14 0.12 0.12 0.14 0.16 0.17 0.17 0.17 0.17 0.18 0.17 0.18 0.18 0.18 0.19 0.19
0.30 0.31 0.32 0.33 0.35 0.36 0.36 0.37 0.38 0.39 0.38 0.38 0.38 0.37 0.36 0.35 0.34 0.34 0.33 0.33 0.33 0.32 0.32 0.30 0.29 0.28 0.27 0.26 0.25 0.25 0.24 0.25 0.25 0.25 0.25 0.25 0.25 0.25 0.25 0.26 0.26 0.25 0.26 0.26 0.26 0.26 0.25 0.24 0.24 0.23 0.22 0.23 0.22 0.20 0.20 0.19 0.19 0.18 0.18 0.17 0.17 0.15 0.15 0.15 0.16 0.16 0.16 0.15 0.12 0.12 0.12 0.12 0.10 0.11 0.12 0.14 0.15 0.15 0.16 0.16 0.17 0.18 0.18 0.19 0.19
0.30 0.31 0.33 0.34 0.34 0.35 0.37 0.38 0.39 0.38 0.37 0.37 0.37 0.36 0.36 0.35 0.34 0.34 0.34 0.34 0.33 0.33 0.32 0.31 0.29 0.28 0.28 0.27 0.26 0.24 0.22 0.21 0.21 0.21 0.23 0.23 0.23 0.23 0.23 0.24 0.24 0.24 0.25 0.25 0.25 0.26 0.26 0.25 0.25 0.24 0.23 0.23 0.22 0.21 0.21 0.20 0.20 0.19 0.19 0.18 0.17 0.16 0.15 0.15 0.16 0.17 0.16 0.17 0.14 0.13 0.12 0.11 0.10 0.11 0.12 0.12 0.14 0.14 0.15 0.16 0.16 0.17 0.17 0.18 0.18
0.32 0.32 0.33 0.35 0.35 0.36 0.37 0.37 0.37 0.37 0.37 0.37 0.37 0.36 0.36 0.35 0.35 0.34 0.34 0.34 0.33 0.32 0.31 0.30 0.29 0.27 0.26 0.24 0.22 0.21 0.20 0.20 0.19 0.19 0.20 0.20 0.21 0.22 0.23 0.24 0.24 0.24 0.24 0.24 0.25 0.26 0.26 0.26 0.26 0.24 0.24 0.23 0.23 0.22 0.22 0.21 0.21 0.20 0.20 0.19 0.18 0.18 0.16 0.16 0.15 0.17 0.17 0.17 0.17 0.16 0.14 0.12 0.11 0.12 0.13 0.10 0.14 0.14 0.14 0.14 0.14 0.15 0.16 0.16 0.17
0.33 0.34 0.35 0.35 0.35 0.35 0.36 0.36 0.36 0.36 0.37 0.38 0.37 0.37 0.36 0.35 0.35 0.34 0.34 0.33 0.32 0.31 0.31 0.29 0.27 0.26 0.24 0.22 0.21 0.21 0.20 0.20 0.21 0.21 0.20 0.20 0.20 0.20 0.20 0.22 0.23 0.24 0.24 0.24 0.25 0.26 0.27 0.27 0.26 0.25 0.25 0.24 0.24 0.23 0.22 0.22 0.22 0.21 0.21 0.20 0.19 0.19 0.18 0.16 0.15 0.15 0.17 0.17 0.17 0.17 0.16 0.16 0.16 0.14 0.12 0.13 0.11 0.12 0.14 0.14 0.14 0.15 0.15 0.15 0.15
0.33 0.34 0.35 0.35 0.35 0.35 0.35 0.37 0.37 0.37 0.38 0.38 0.37 0.36 0.35 0.35 0.35 0.34 0.34 0.33 0.31 0.30 0.28 0.26 0.24 0.23 0.22 0.21 0.21 0.20 0.20 0.19 0.19 0.19 0.19 0.18 0.17 0.17 0.18 0.18 0.20 0.21 0.22 0.23 0.24 0.25 0.25 0.26 0.26 0.25 0.25 0.24 0.24 0.23 0.22 0.22 0.22 0.22 0.22 0.21 0.20 0.19 0.19 0.17 0.17 0.17 0.15 0.15 0.17 0.16 0.16 0.17 0.17 0.16 0.16 0.14 0.13 0.11 0.11 0.14 0.15 0.15 0.15 0.15 0.15
0.34 0.34 0.35 0.35 0.36 0.36 0.37 0.37 0.38 0.38 0.38 0.37 0.37 0.37 0.36 0.36 0.35 0.34 0.32 0.31 0.29 0.27 0.25 0.23 0.22 0.21 0.21 0.20 0.19 0.18 0.17 0.16 0.16 0.16 0.16 0.16 0.16 0.16 0.17 0.17 0.18 0.19 0.20 0.21 0.21 0.22 0.22 0.22 0.23 0.23 0.22 0.22 0.22 0.22 0.22 0.22 0.21 0.21 0.21 0.21 0.20 0.19 0.19 0.18 0.18 0.17 0.17 0.16 0.16 0.16 0.17 0.16 0.16 0.17 0.16 0.16 0.14 0.13 0.12 0.12 0.12 0.14 0.15 0.14 0.15
0.36 0.36 0.36 0.37 0.37 0.38 0.39 0.39 0.38 0.38 0.38 0.38 0.37 0.36 0.35 0.34 0.33 0.32 0.29 0.27 0.26 0.24 0.22 0.20 0.20 0.19 0.18 0.16 0.14 0.13 0.14 0.14 0.14 0.13 0.13 0.14 0.13 0.14 0.15 0.15 0.16 0.17 0.18 0.19 0.19 0.20 0.20 0.20 0.20 0.20 0.20 0.19 0.19 0.20 0.20 0.20 0.20 0.20 0.20 0.20 0.20 0.19 0.19 0.18 0.17 0.17 0.18 0.17 0.17 0.16 0.15 0.15 0.15 0.15 0.15 0.15 0.15 0.15 0.12 0.12 0.13 0.12 0.11 0.12 0.14
0.37 0.37 0.37 0.38 0.39 0.39 0.39 0.39 0.38 0.38 0.38 0.37 0.36 0.34 0.33 0.32 0.30 0.28 0.26 0.25 0.23 0.21 0.19 0.18 0.17 0.16 0.13 0.13 0.13 0.12 0.12 0.12 0.11 0.10 0.10 0.10 0.10 0.10 0.11 0.12 0.13 0.14 0.16 0.17 0.17 0.18 0.18 0.19 0.19 0.19 0.19 0.19 0.18 0.18 0.19 0.19 0.19 0.19 0.19 0.19 0.19 0.19 0.18 0.17 0.17 0.17 0.17 0.17 0.17 0.17 0.15 0.15 0.14 0.13 0.13 0.14 0.14 0.12 0.13 0.12 0.13 0.13 0.13 0.12 0.13
0.37 0.38 0.38 0.39 0.39 0.39 0.39 0.38 0.37 0.37 0.36 0.35 0.33 0.32 0.30 0.29 0.27 0.25 0.23 0.22 0.20 0.19 0.17 0.15 0.14 0.13 0.13 0.13 0.12 0.12 0.11 0.10 0.09 0.08 0.08 0.08 0.09 0.09 0.09 0.10 0.11 0.13 0.14 0.15 0.15 0.16 0.17 0.17 0.17 0.17 0.17 0.18 0.18 0.18 0.18 0.19 0.19 0.19 0.18 0.18 0.18 0.18 0.18 0.17 0.16 0.15 0.16 0.16 0.16 0.16 0.16 0.16 0.15 0.14 0.14 0.14 0.13 0.13 0.13 0.12 0.12 0.13 0.13 0.13 0.13
0.39 0.39 0.39 0.38 0.37 0.37 0.37 0.36 0.36 0.34 0.33 0.32 0.30 0.29 0.28 0.26 0.24 0.22 0.20 0.19 0.18 0.16 0.14 0.13 0.13 0.12 0.12 0.12 0.11 0.10 0.08 0.07 0.07 0.07 0.08 0.08 0.09 0.09 0.09 0.09 0.10 0.10 0.11 0.12 0.15 0.16 0.17 0.16 0.16 0.16 0.16 0.16 0.17 0.17 0.18 0.18 0.18 0.18 0.18 0.17 0.17 0.17 0.17 0.17 0.16 0.15 0.16 0.16 0.15 0.16 0.16 0.16 0.15 0.15 0.15 0.15 0.14 0.14 0.13 0.12 0.12 0.14 0.12 0.12 0.13
0.39 0.39 0.38 0.37 0.37 0.36 0.36 0.35 0.34 0.32 0.31 0.29 0.28 0.26 0.24 0.22 0.21 0.20 0.18 0.17 0.14 0.13 0.13 0.12 0.12 0.12 0.12 0.10 0.08 0.07 0.07 0.08 0.08 0.08 0.09 0.10 0.10 0.10 0.10 0.11 0.11 0.12 0.13 0.14 0.15 0.15 0.15 0.16 0.16 0.16 0.17 0.17 0.17 0.17 0.17 0.17 0.18 0.18 0.17 0.17 0.17 0.17 0.17 0.17 0.16 0.16 0.17 0.17 0.16 0.15 0.15 0.15 0.15 0.16 0.15 0.15 0.14 0.14 0.13 0.12 0.12 0.12 0.13 0.12 0.13
0.39 0.37 0.36 0.36 0.36 0.35 0.34 0.33 0.32 0.30 0.28 0.26 0.25 0.23 0.21 0.20 0.19 0.17 0.15 0.13 0.12 0.12 0.12 0.11 0.11 0.10 0.08 0.07 0.07 0.08 0.08 0.09 0.09 0.09 0.10 0.10 0.11 0.11 0.11 0.12 0.12 0.13 0.14 0.13 0.13 0.13 0.14 0.14 0.14 0.15 0.16 0.16 0.16 0.16 0.16 0.16 0.16 0.16 0.16 0.16 0.17 0.17 0.16 0.16 0.16 0.16 0.16 0.17 0.16 0.15 0.15 0.15 0.15 0.15 0.15 0.15 0.15 0.14 0.14 0.13 0.12 0.11 0.11 0.12 0.12
0.38 0.36 0.35 0.35 0.35 0.34 0.32 0.31 0.29 0.28 0.26 0.24 0.22 0.21 0.19 0.18 0.16 0.14 0.12 0.11 0.11 0.11 0.11 0.10 0.09 0.08 0.07 0.07 0.08 0.08 0.09 0.09 0.09 0.10 0.10 0.09 0.09 0.10 0.10 0.10 0.11 0.11 0.11 0.11 0.11 0.12 0.12 0.11 0.12 0.13 0.14 0.14 0.15 0.16 0.16 0.16 0.16 0.15 0.15 0.15 0.15 0.16 0.15 0.15 0.15 0.15 0.16 0.17 0.17 0.16 0.16 0.15 0.15 0.15 0.15 0.15 0.15 0.15 0.15 0.14 0.13 0.13 0.11 0.10 0.11
0.36 0.34 0.34 0.33 0.33 0.32 0.30 0.29 0.27 0.25 0.23 0.22 0.20 0.18 0.16 0.15 0.13 0.12 0.10 0.10 0.10 0.10 0.10 0.08 0.07 0.06 0.07 0.07 0.08 0.08 0.09 0.08 0.08 0.07 0.07 0.07 0.07 0.07 0.08 0.09 0.09 0.09 0.09 0.09 0.09 0.10 0.10 0.10 0.10 0.10 0.11 0.12 0.12 0.14 0.15 0.16 0.16 0.15 0.15 0.14 0.14 0.15 0.15 0.14 0.14 0.14 0.16 0.17 0.16 0.16 0.16 0.15 0.15 0.15 0.15 0.15 0.14 0.15 0.15 0.15 0.15 0.13 0.13 0.11 0.10
0.34 0.33 0.33 0.32 0.31 0.30 0.28 0.26 0.24 0.22 0.21 0.19 0.17 0.15 0.15 0.14 0.12 0.09 0.09 0.09 0.09 0.09 0.08 0.06 0.06 0.06 0.07 0.07 0.08 0.08 0.08 0.07 0.06 0.06 0.06 0.06 0.06 0.06 0.06 0.06 0.06 0.06 0.07 0.08 0.08 0.08 0.08 0.08 0.08 0.08 0.08 0.08 0.09 0.10 0.11 0.13 0.15 0.15 0.15 0.14 0.14 0.14 0.14 0.14 0.14 0.15 0.15 0.16 0.15 0.16 0.16 0.16 0.16 0.16 0.15 0.15 0.14 0.14 0.14 0.14 0.15 0.15 0.14 0.13 0.12
0.32 0.31 0.31 0.31 0.29 0.27 0.25 0.23 0.21 0.19 0.18 0.17 0.15 0.14 0.14 0.11 0.09 0.09 0.08 0.08 0.08 0.07 0.06 0.06 0.06 0.06 0.07 0.08 0.08 0.07 0.07 0.06 0.06 0.06 0.06 0.06 0.06 0.06 0.06 0.06 0.06 0.06 0.07 0.07 0.07 0.07 0.07 0.07 0.07 0.07 0.07 0.07 0.08 0.08 0.09 0.11 0.14 0.14 0.14 0.15 0.14 0.14 0.14 0.14 0.14 0.15 0.15 0.15 0.15 0.16 0.17 0.16 0.16 0.16 0.15 0.15 0.15 0.14 0.14 0.14 0.15 0.15 0.15 0.15 0.14
0.31 0.30 0.29 0.28 0.26 0.24 0.21 0.19 0.18 0.17 0.17 0.16 0.13 0.12 0.11 0.09 0.08 0.08 0.07 0.07 0.07 0.06 0.06 0.06 0.06 0.07 0.07 0.08 0.07 0.07 0.06 0.06 0.06 0.06 0.06 0.06 0.06 0.06 0.06 0.06 0.06 0.07 0.07 0.07 0.07 0.07 0.07 0.07 0.07 0.07 0.07 0.08 0.08 0.08 0.08 0.09 0.12 0.13 0.14 0.14 0.14 0.15 0.15 0.14 0.15 0.15 0.16 0.16 0.17 0.16 0.16 0.16 0.16 0.15 0.15 0.14 0.14 0.14 0.14 0.14 0.15 0.15 0.15 0.15 0.15
0.29 0.27 0.26 0.24 0.22 0.20 0.19 0.19 0.18 0.18 0.16 0.14 0.11 0.10 0.09 0.08 0.07 0.07 0.06 0.06 0.06 0.06 0.06 0.06 0.06 0.07 0.07 0.07 0.07 0.06 0.06 0.06 0.06 0.06 0.06 0.06 0.06 0.06 0.06 0.06 0.06 0.06 0.06 0.06 0.07 0.07 0.07 0.07 0.07 0.08 0.08 0.08 0.09 0.09 0.09 0.09 0.09 0.10 0.11 0.13 0.14 0.15 0.15 0.15 0.16 0.16 0.16 0.16 0.16 0.16 0.15 0.15 0.16 0.15 0.14 0.14 0.14 0.14 0.14 0.15 0.15 0.15 0.15 0.16 0.16
0.26 0.23 0.22 0.21 0.20 0.19 0.19 0.18 0.17 0.16 0.13 0.10 0.09 0.08 0.07 0.07 0.07 0.06 0.06 0.06 0.06 0.06 0.06 0.06 0.06 0.07 0.07 0.07 0.07 0.06 0.06 0.06 0.06 0.06 0.06 0.06 0.06 0.06 0.06 0.06 0.06 0.06 0.06 0.06 0.06 0.07 0.07 0.07 0.07 0.07 0.08 0.08 0.08 0.08 0.09 0.09 0.10 0.10 0.11 0.11 0.12 0.13 0.14 0.14 0.15 0.15 0.15 0.15 0.15 0.15 0.14 0.15 0.15 0.14 0.14 0.14 0.14 0.14 0.14 0.14 0.15 0.15 0.15 0.16 0.17
0.23 0.22 0.22 0.21 0.20 0.19 0.18 0.17 0.15 0.13 0.10 0.08 0.07 0.07 0.06 0.06 0.06 0.06 0.06 0.06 0.06 0.06 0.06 0.06 0.06 0.07 0.07 0.07 0.06 0.06 0.06 0.06 0.06 0.06 0.06 0.06 0.06 0.06 0.06 0.06 0.06 0.06 0.06 0.06 0.06 0.06 0.06 0.06 0.06 0.07 0.07 0.07 0.07 0.08 0.08 0.08 0.09 0.09 0.10 0.11 0.12 0.12 0.12 0.13 0.13 0.13 0.14 0.14 0.14 0.14 0.14 0.14 0.14 0.14 0.13 0.13 0.13 0.13 0.14 0.15 0.15 0.16 0.16 0.16 0.17
0.23 0.23 0.21 0.20 0.19 0.18 0.16 0.14 0.12 0.10 0.08 0.07 0.07 0.06 0.07 0.07 0.06 0.06 0.06 0.06 0.06 0.06 0.06 0.06 0.06 0.07 0.07 0.06 0.06 0.06 0.06 0.06 0.06 0.06 0.06 0.06 0.06 0.06 0.06 0.06 0.06 0.06 0.06 0.06 0.06 0.06 0.06 0.06 0.06 0.06 0.07 0.07 0.07 0.08 0.08 0.08 0.09 0.09 0.09 0.10 0.12 0.13 0.13 0.12 0.12 0.13 0.13 0.13 0.13 0.13 0.13 0.13 0.13 0.13 0.13 0.13 0.13 0.14 0.14 0.15 0.15 0.16 0.17 0.17 0.17
0.22 0.21 0.20 0.19 0.17 0.16 0.14 0.12 0.10 0.08 0.07 0.06 0.06 0.07 0.07 0.07 0.06 0.06 0.06 0.06 0.05 0.06 0.06 0.06 0.06 0.06 0.06 0.06 0.06 0.06 0.06 0.06 0.06 0.06 0.06 0.06 0.06 0.06 0.06 0.06 0.06 0.06 0.06 0.06 0.06 0.06 0.06 0.06 0.06 0.06 0.06 0.07 0.07 0.07 0.08 0.08 0.09 0.09 0.10 0.10 0.12 0.13 0.13 0.13 0.13 0.13 0.13 0.13 0.13 0.13 0.13 0.13 0.13 0.13 0.13 0.13 0.13 0.14 0.15 0.15 0.16 0.17 0.17 0.18 0.18
0.21 0.19 0.18 0.17 0.15 0.13 0.11 0.10 0.08 0.07 0.06 0.06 0.06 0.06 0.06 0.06 0.06 0.06 0.06 0.05 0.05 0.06 0.06 0.06 0.06 0.06 0.06 0.06 0.06 0.06 0.06 0.06 0.06 0.06 0.06 0.06 0.06 0.06 0.06 0.06 0.06 0.06 0.06 0.06 0.06 0.06 0.06 0.06 0.06 0.06 0.07 0.07 0.07 0.08 0.08 0.08 0.09 0.09 0.10 0.11 0.11 0.12 0.13 0.13 0.13 0.13 0.13 0.13 0.13 0.13 0.13 0.13 0.13 0.13 0.13 0.13 0.14 0.14 0.15 0.16 0.16 0.17 0.18 0.18 0.18
0.19 0.18 0.17 0.15 0.13 0.11 0.10 0.08 0.06 0.06 0.06 0.06 0.06 0.06 0.06 0.06 0.06 0.06 0.06 0.06 0.06 0.06 0.06 0.06 0.06 0.06 0.06 0.06 0.06 0.06 0.06 0.06 0.06 0.06 0.06 0.06 0.06 0.06 0.06 0.06 0.06 0.06 0.06 0.06 0.06 0.06 0.06 0.06 0.06 0.07 0.07 0.07 0.07 0.08 0.08 0.08 0.09 0.10 0.10 0.11 0.12 0.12 0.12 0.12 0.12 0.12 0.12 0.12 0.13 0.13 0.13 0.13 0.13 0.13 0.13 0.13 0.14 0.15 0.16 0.16 0.17 0.17 0.18 0.18 0.17
0.17 0.16 0.14 0.13 0.11 0.10 0.08 0.07 0.06 0.06 0.06 0.06 0.06 0.06 0.05 0.06 0.06 0.06 0.06 0.06 0.06 0.06 0.06 0.06 0.06 0.06 0.06 0.06 0.06 0.06 0.06 0.06 0.06 0.06 0.06 0.06 0.06 0.06 0.06 0.06 0.06 0.06 0.06 0.06 0.06 0.06 0.06 0.06 0.06 0.07 0.07 0.07 0.07 0.08 0.08 0.08 0.09 0.09 0.09 0.10 0.10 0.10 0.11 0.12 0.13 0.13 0.13 0.14 0.14 0.14 0.13 0.14 0.14 0.14 0.14 0.15 0.15 0.15 0.16 0.17 0.18 0.18 0.18 0.17 0.16
0.15 0.14 0.13 0.11 0.10 0.08 0.07 0.06 0.05 0.06 0.06 0.06 0.06 0.05 0.05 0.06 0.06 0.06 0.06 0.06 0.06 0.06 0.06 0.06 0.06 0.06 0.06 0.06 0.06 0.06 0.06 0.06 0.06 0.06 0.06 0.06 0.05 0.05 0.06 0.06 0.06 0.06 0.06 0.06 0.06 0.06 0.06 0.06 0.06 0.07 0.07 0.07 0.07 0.07 0.08 0.08 0.08 0.09 0.09 0.10 0.11 0.11 0.11 0.11 0.11 0.12 0.13 0.13 0.13 0.13 0.14 0.14 0.15 0.15 0.16 0.16 0.16 0.17 0.17 0.17 0.18 0.18 0.17 0.17 0.16
0.14 0.13 0.11 0.10 0.09 0.07 0.06 0.05 0.05 0.05 0.05 0.06 0.05 0.05 0.05 0.05 0.06 0.06 0.06 0.06 0.06 0.06 0.06 0.06 0.06 0.06 0.06 0.06 0.06 0.06 0.06 0.06 0.06 0.05 0.05 0.05 0.05 0.05 0.05 0.05 0.05 0.05 0.06 0.06 0.06 0.06 0.06 0.06 0.06 0.06 0.07 0.07 0.07 0.08 0.08 0.09 0.09 0.10 0.10 0.11 0.11 0.12 0.12 0.12 0.12 0.12 0.12 0.12 0.13 0.14 0.15 0.15 0.15 0.16 0.16 0.17 0.17 0.18 0.18 0.18 0.18 0.18 0.17 0.16 0.16
0.12 0.11 0.10 0.09 0.08 0.06 0.06 0.05 0.05 0.05 0.05 0.05 0.05 0.05 0.05 0.06 0.06 0.06 0.06 0.06 0.06 0.06 0.06 0.06 0.06 0.06 0.06 0.06 0.06 0.06 0.06 0.05 0.05 0.05 0.05 0.05 0.05 0.05 0.05 0.05 0.05 0.05 0.05 0.05 0.06 0.06 0.06 0.06 0.06 0.06 0.06 0.07 0.07 0.08 0.08 0.09 0.10 0.11 0.11 0.11 0.12 0.12 0.13 0.13 0.13 0.13 0.13 0.13 0.14 0.15 0.15 0.15 0.16 0.16 0.17 0.17 0.18 0.18 0.18 0.18 0.19 0.18 0.18 0.17 0.16
0.11 0.10 0.09 0.08 0.07 0.06 0.05 0.05 0.05 0.05 0.05 0.05 0.05 0.06 0.06 0.05 0.06 0.06 0.06 0.06 0.06 0.06 0.06 0.06 0.06 0.06 0.06 0.06 0.06 0.05 0.05 0.05 0.05 0.05 0.05 0.05 0.05 0.05 0.05 0.05 0.05 0.05 0.05 0.06 0.06 0.06 0.06 0.06 0.06 0.06 0.06 0.07 0.07 0.08 0.09 0.09 0.10 0.10 0.11 0.12 0.12 0.12 0.13 0.13 0.13 0.13 0.14 0.14 0.14 0.14 0.15 0.15 0.16 0.16 0.17 0.17 0.17 0.18 0.18 0.18 0.18 0.19 0.19 0.18 0.17
0.10 0.09 0.08 0.07 0.06 0.06 0.05 0.05 0.05 0.05 0.05 0.06 0.06 0.06 0.06 0.06 0.06 0.06 0.06 0.06 0.06 0.06 0.06 0.06 0.06 0.06 0.06 0.06 0.05 0.05 0.05 0.05 0.05 0.05 0.05 0.05 0.05 0.05 0.05 0.05 0.05 0.05 0.05 0.05 0.06 0.06 0.06 0.06 0.06 0.06 0.06 0.07 0.07 0.08 0.08 0.09 0.10 0.11 0.11 0.12 0.12 0.13 0.13 0.13 0.13 0.13 0.14 0.14 0.14 0.14 0.15 0.15 0.16 0.17 0.17 0.17 0.18 0.18 0.18 0.18 0.18 0.18 0.18 0.18 0.19
0.09 0.09 0.07 0.06 0.06 0.06 0.05 0.05 0.05 0.06 0.06 0.06 0.06 0.06 0.06 0.06 0.06 0.06 0.06 0.06 0.06 0.06 0.06 0.06 0.06 0.06 0.05 0.05 0.05 0.05 0.05 0.05 0.05 0.05 0.05 0.05 0.05 0.05 0.05 0.05 0.05 0.05 0.05 0.06 0.06 0.06 0.06 0.06 0.06 0.06 0.07 0.07 0.07 0.08 0.09 0.09 0.10 0.11 0.11 0.12 0.12 0.13 0.13 0.13 0.13 0.14 0.14 0.14 0.14 0.14 0.14 0.15 0.16 0.16 0.17 0.17 0.18 0.17 0.17 0.17 0.18 0.18 0.18 0.18 0.18
0.09 0.08 0.07 0.06 0.06 0.06 0.05 0.05 0.05 0.06 0.06 0.06 0.06 0.06 0.06 0.06 0.06 0.06 0.06 0.06 0.06 0.06 0.06 0.06 0.05 0.05 0.05 0.05 0.05 0.05 0.05 0.05 0.05 0.05 0.05 0.05 0.05 0.05 0.05 0.05 0.05 0.05 0.06 0.06 0.06 0.06 0.06 0.06 0.07 0.07 0.07 0.07 0.08 0.08 0.09 0.10 0.10 0.11 0.11 0.12 0.12 0.13 0.13 0.13 0.13 0.14 0.14 0.14 0.15 0.15 0.15 0.15 0.16 0.16 0.17 0.17 0.17 0.17 0.17 0.17 0.17 0.16 0.16 0.17 0.17
0.08 0.07 0.06 0.06 0.06 0.05 0.05 0.05 0.06 0.06 0.06 0.06 0.06 0.06 0.06 0.06 0.06 0.06 0.06 0.06 0.06 0.06 0.06 0.05 0.05 0.05 0.05 0.05 0.05 0.05 0.05 0.05 0.05 0.05 0.05 0.05 0.05 0.05 0.05 0.05 0.05 0.06 0.06 0.06 0.06 0.06 0.06 0.07 0.07 0.07 0.07 0.07 0.08 0.09 0.09 0.09 0.10 0.11 0.11 0.12 0.12 0.12 0.12 0.12 0.13 0.14 0.14 0.15 0.15 0.16 0.16 0.16 0.16 0.16 0.17 0.17 0.17 0.17 0.17 0.16 0.16 0.16 0.16 0.16 0.16
0.08 0.06 0.06 0.06 0.06 0.06 0.05 0.06 0.06 0.06 0.06 0.06 0.06 0.06 0.06 0.06 0.06 0.06 0.06 0.06 0.06 0.05 0.05 0.05 0.05 0.05 0.05 0.05 0.05 0.05 0.05 0.05 0.05 0.05 0.05 0.05 0.05 0.05 0.05 0.06 0.05 0.06 0.06 0.06 0.06 0.06 0.07 0.07 0.07 0.07 0.07 0.07 0.08 0.08 0.09 0.10 0.10 0.11 0.11 0.11 0.11 0.12 0.12 0.12 0.12 0.13 0.14 0.15 0.15 0.16 0.16 0.16 0.16 0.16 0.17 0.17 0.17 0.17 0.16 0.16 0.15 0.15 0.15 0.16 0.16
0.07 0.06 0.06 0.06 0.06 0.06 0.06 0.06 0.06 0.06 0.06 0.06 0.06 0.06 0.06 0.06 0.06 0.06 0.06 0.06 0.05 0.05 0.05 0.05 0.05 0.05 0.05 0.05 0.05 0.05 0.05 0.05 0.05 0.05 0.05 0.05 0.05 0.05 0.05 0.06 0.06 0.06 0.06 0.06 0.06 0.07 0.07 0.07 0.08 0.08 0.08 0.08 0.08 0.09 0.09 0.10 0.10 0.11 0.11 0.11 0.11 0.11 0.11 0.12 0.12 0.13 0.14 0.15 0.16 0.16 0.16 0.16 0.16 0.16 0.17 0.17 0.17 0.17 0.16 0.16 0.15 0.15 0.15 0.15 0.15
0.06 0.06 0.06 0.06 0.06 0.06 0.06 0.06 0.06 0.06 0.06 0.07 0.06 0.06 0.06 0.06 0.06 0.06 0.06 0.05 0.05 0.05 0.05 0.05 0.05 0.05 0.05 0.05 0.05 0.05 0.05 0.05 0.05 0.05 0.05 0.05 0.05 0.05 0.06 0.06 0.06 0.06 0.06 0.07 0.07 0.07 0.07 0.08 0.08 0.08 0.08 0.08 0.09 0.09 0.10 0.10 0.10 0.11 0.11 0.11 0.11 0.11 0.11 0.11 0.12 0.13 0.14 0.15 0.15 0.16 0.16 0.16 0.16 0.16 0.17 0.17 0.17 0.17 0.17 0.16 0.16 0.15 0.15 0.14 0.15
0.06 0.06 0.06 0.06 0.06 0.06 0.06 0.06 0.06 0.06 0.07 0.07 0.07 0.06 0.06 0.06 0.06 0.06 0.05 0.05 0.05 0.05 0.05 0.05 0.05 0.05 0.05 0.05 0.05 0.05 0.05 0.05 0.05 0.05 0.05 0.05 0.05 0.06 0.06 0.06 0.06 0.06 0.06 0.07 0.07 0.07 0.07 0.08 0.08 0.08 0.09 0.09 0.09 0.09 0.10 0.11 0.11 0.11 0.11 0.11 0.11 0.11 0.11 0.11 0.12 0.13 0.13 0.14 0.15 0.15 0.16 0.16 0.17 0.16 0.16 0.17 0.17 0.17 0.17 0.17 0.16 0.15 0.15 0.14 0.16
0.06 0.06 0.07 0.06 0.06 0.06 0.06 0.06 0.07 0.07 0.07 0.07 0.07 0.06 0.06 0.06 0.06 0.05 0.05 0.05 0.05 0.05 0.05 0.05 0.05 0.05 0.05 0.05 0.05 0.05 0.05 0.05 0.05 0.05 0.05 0.05 0.06 0.06 0.06 0.06 0.06 0.06 0.06 0.07 0.07 0.07 0.07 0.08 0.08 0.09 0.09 0.09 0.10 0.10 0.10 0.11 0.11 0.11 0.12 0.11 0.11 0.11 0.11 0.12 0.12 0.13 0.13 0.13 0.13 0.14 0.15 0.15 0.16 0.16 0.17 0.17 0.17 0.17 0.17 0.17 0.17 0.16 0.16 0.16 0.17
0.06 0.07 0.07 0.07 0.07 0.07 0.07 0.07 0.07 0.07 0.07 0.07 0.06 0.06 0.06 0.05 0.05 0.05 0.05 0.05 0.05 0.05 0.05 0.05 0.05 0.05 0.05 0.05 0.05 0.05 0.05 0.05 0.05 0.05 0.05 0.05 0.06 0.06 0.06 0.06 0.06 0.06 0.06 0.07 0.07 0.07 0.07 0.08 0.08 0.09 0.09 0.10 0.11 0.11 0.11 0.11 0.11 0.12 0.12 0.12 0.12 0.12 0.12 0.12 0.12 0.12 0.13 0.13 0.13 0.14 0.14 0.15 0.15 0.16 0.16 0.16 0.17 0.17 0.17 0.17 0.17 0.17 0.17 0.17 0.17
0.06 0.07 0.07 0.07 0.07 0.07 0.07 0.06 0.07 0.07 0.07 0.06 0.06 0.06 0.05 0.05 0.05 0.05 0.05 0.06 0.05 0.05 0.05 0.05 0.05 0.05 0.05 0.05 0.05 0.05 0.05 0.05 0.05 0.05 0.05 0.05 0.06 0.06 0.06 0.06 0.06 0.06 0.06 0.06 0.07 0.07 0.07 0.07 0.08 0.09 0.10 0.10 0.11 0.11 0.11 0.11 0.12 0.12 0.12 0.12 0.12 0.12 0.13 0.13 0.13 0.13 0.13 0.13 0.14 0.14 0.14 0.15 0.15 0.15 0.16 0.16 0.16 0.17 0.17 0.17 0.17 0.18 0.18 0.18 0.17
0.07 0.07 0.07 0.07 0.07 0.07 0.06 0.06 0.06 0.06 0.06 0.06 0.06 0.05 0.05 0.05 0.05 0.05 0.06 0.05 0.05 0.05 0.05 0.05 0.05 0.05 0.05 0.05 0.05 0.05 0.05 0.05 0.05 0.05 0.05 0.05 0.05 0.06 0.06 0.06 0.06 0.06 0.06 0.06 0.07 0.07 0.07 0.07 0.08 0.09 0.10 0.10 0.11 0.11 0.11 0.12 0.12 0.12 0.13 0.13 0.13 0.13 0.13 0.13 0.14 0.13 0.14 0.14 0.14 0.15 0.15 0.15 0.15 0.16 0.16 0.16 0.16 0.17 0.17 0.17 0.17 0.17 0.18 0.18 0.18
0.07 0.07 0.07 0.07 0.07 0.06 0.06 0.06 0.06 0.06 0.06 0.06 0.06 0.05 0.05 0.05 0.05 0.06 0.05 0.05 0.05 0.05 0.05 0.05 0.05 0.05 0.05 0.05 0.05 0.05 0.05 0.05 0.05 0.05 0.05 0.05 0.05 0.06 0.05 0.06 0.06 0.06 0.06 0.06 0.07 0.07 0.07 0.08 0.08 0.09 0.09 0.10 0.11 0.11 0.12 0.12 0.12 0.13 0.13 0.13 0.13 0.13 0.13 0.14 0.14 0.14 0.15 0.15 0.15 0.15 0.15 0.15 0.16 0.16 0.16 0.16 0.16 0.16 0.17 0.17 0.17 0.17 0.17 0.18 0.18
0.07 0.07 0.07 0.07 0.07 0.06 0.06 0.06 0.06 0.06 0.06 0.06 0.06 0.06 0.05 0.05 0.05 0.05 0.05 0.05 0.05 0.05 0.05 0.05 0.05 0.05 0.05 0.05 0.05 0.05 0.05 0.05 0.05 0.05 0.05 0.05 0.05 0.06 0.06 0.06 0.06 0.06 0.06 0.07 0.07 0.07 0.07 0.08 0.08 0.09 0.09 0.10 0.10 0.11 0.12 0.12 0.12 0.13 0.13 0.13 0.14 0.14 0.14 0.14 0.14 0.14 0.14 0.15 0.15 0.15 0.16 0.16 0.16 0.16 0.16 0.16 0.16 0.16 0.17 0.17 0.17 0.17 0.17 0.17 0.18
0.07 0.07 0.07 0.06 0.06 0.06 0.06 0.06 0.05 0.06 0.06 0.06 0.06 0.06 0.05 0.05 0.05 0.05 0.05 0.05 0.05 0.05 0.05 0.05 0.04 0.04 0.05 0.05 0.05 0.05 0.05 0.05 0.05 0.05 0.05 0.05 0.06 0.06 0.06 0.06 0.06 0.06 0.06 0.07 0.07 0.07 0.07 0.08 0.08 0.08 0.09 0.09 0.10 0.11 0.11 0.12 0.13 0.13 0.13 0.13 0.13 0.14 0.14 0.14 0.14 0.14 0.15 0.15 0.15 0.15 0.15 0.15 0.15 0.16 0.16 0.16 0.16 0.16 0.16 0.16 0.17 0.17 0.18 0.17 0.18
0.07 0.07 0.07 0.06 0.06 0.06 0.06 0.06 0.05 0.06 0.06 0.06 0.05 0.05 0.05 0.05 0.05 0.05 0.05 0.05 0.05 0.05 0.05 0.04 0.04 0.04 0.04 0.05 0.05 0.05 0.05 0.05 0.05 0.05 0.05 0.05 0.05 0.06 0.06 0.06 0.06 0.06 0.06 0.06 0.06 0.07 0.07 0.08 0.08 0.08 0.09 0.09 0.09 0.10 0.11 0.12 0.13 0.13 0.13 0.14 0.14 0.14 0.14 0.14 0.13 0.13 0.14 0.14 0.14 0.15 0.15 0.15 0.16 0.15 0.15 0.16 0.16 0.16 0.17 0.16 0.16 0.17 0.17 0.18 0.18
0.06 0.06 0.06 0.06 0.06 0.06 0.06 0.06 0.05 0.06 0.06 0.05 0.05 0.05 0.05 0.05 0.05 0.05 0.05 0.05 0.05 0.05 0.04 0.04 0.04 0.04 0.04 0.05 0.05 0.05 0.05 0.05 0.05 0.05 0.05 0.05 0.05 0.06 0.06 0.06 0.07 0.07 0.07 0.07 0.07 0.07 0.08 0.08 0.09 0.08 0.08 0.08 0.09 0.09 0.11 0.12 0.13 0.13 0.13 0.14 0.13 0.13 0.13 0.13 0.13 0.14 0.14 0.15 0.14 0.14 0.14 0.14 0.14 0.14 0.14 0.15 0.15 0.15 0.15 0.16 0.16 0.17 0.17 0.18 0.18
0.06 0.06 0.06 0.06 0.06 0.06 0.06 0.05 0.05 0.05 0.05 0.05 0.05 0.05 0.05 0.05 0.05 0.05 0.05 0.05 0.05 0.04 0.04 0.04 0.04 0.04 0.04 0.04 0.05 0.05 0.05 0.05 0.05 0.05 0.05 0.05 0.06 0.06 0.06 0.06 0.06 0.07 0.07 0.08 0.08 0.08 0.08 0.08 0.09 0.09 0.09 0.09 0.09 0.10 0.11 0.12 0.12 0.12 0.13 0.13 0.14 0.14 0.14 0.13 0.13 0.15 0.15 0.14 0.13 0.13 0.13 0.13 0.13 0.13 0.13 0.14 0.14 0.14 0.14 0.15 0.15 0.16 0.16 0.17 0.17
0.06 0.06 0.06 0.06 0.06 0.06 0.06 0.05 0.05 0.05 0.05 0.05 0.05 0.05 0.05 0.05 0.05 0.05 0.05 0.05 0.05 0.04 0.04 0.04 0.04 0.04 0.04 0.04 0.04 0.05 0.05 0.05 0.05 0.05 0.05 0.05 0.05 0.05 0.06 0.07 0.07 0.07 0.07 0.08 0.08 0.08 0.09 0.09 0.09 0.09 0.09 0.10 0.10 0.10 0.11 0.12 0.12 0.12 0.12 0.13 0.13 0.14 0.14 0.14 0.14 0.14 0.13 0.12 0.12 0.12 0.12 0.12 0.12 0.13 0.13 0.13 0.13 0.14 0.14 0.14 0.14 0.15 0.15 0.16 0.16
Wind_Speed
19 18 18 18 18 18 19 19 20 21 22 23 24 25 25 26 27 28 29 30 31 32 33 34 35 36 38 39 40 41 41 42 43 44 45 45 46 45 45 45 45 45 45 45 45 45 45 45 45 45 45 45 45 46 46 47 47 48 48 48 48 48 48 47 48 48 49 49 49 49 50 50 50 50 50 50 50 50 51 51 51 51 51 51 52
19 19 19 18 18 19 20 21 21 22 23 24 24 25 26 27 28 29 30 31 32 33 34 35 36 38 39 41 42 43 43 44 44 45 46 47 47 47 46 46 46 46 45 45 45 46 46 46 46 46 46 46 46 47 47 47 48 48 49 49 49 49 49 48 48 49 49 49 49 50 50 50 50 50 50 50 50 50 50 50 50 50 51 51 52
20 20 19 19 19 19 20 21 22 23 23 24 25 25 27 28 29 30 31 32 33 35 36 37 39 40 41 43 44 44 45 45 46 46 47 47 47 47 47 47 47 47 47 47 47 47 47 47 47 48 48 48 48 48 48 48 48 49 49 50 51 51 50 50 49 49 50 50 50 50 49 49 49 49 49 49 49 49 50 50 50 50 51 51 52
20 20 20 19 19 20 21 22 23 23 24 25 26 27 28 29 31 32 33 35 36 37 39 40 42 43 44 45 45 46 46 46 46 46 47 47 47 47 48 48 48 48 48 48 48 48 49 49 49 49 49 49 49 50 50 50 50 50 50 51 51 51 51 51 50 50 50 50 50 50 49 49 50 48 49 50 50 50 50 50 50 50 51 51 52
20 20 20 19 20 21 21 22 23 24 25 26 27 28 30 31 33 34 35 37 38 40 41 43 44 45 46 46 47 47 47 47 47 47 47 47 48 48 49 50 50 50 50 50 50 50 51 51 51 51 51 51 51 51 52 51 51 51 51 51 52 52 53 52 51 51 51 51 51 51 51 50 50 50 51 52 51 51 51 51 51 51 51 51 52
19 19 19 20 20 21 22 23 24 25 26 27 29 30 32 33 35 36 37 39 40 42 44 45 45 46 47 48 48 48 48 48 48 48 48 48 49 49 50 51 51 51 52 52 53 53 53 53 53 53 53 53 53 53 53 53 53 53 52 53 53 53 54 54 53 53 52 53 53 53 53 53 53 53 53 53 52 52 53 53 53 53 53 53 53
19 19 20 20 21 22 23 24 25 26 28 29 31 32 34 35 37 38 39 41 42 44 45 46 46 47 48 48 48 49 49 49 49 49 49 50 50 51 51 52 52 53 53 53 53 54 54 55 55 55 55 55 55 55 55 54 54 54 54 54 54 54 54 55 55 54 54 54 54 55 56 56 56 55 54 55 55 54 54 54 54 54 54 55 55
19 20 21 21 22 23 24 26 27 28 30 31 33 34 36 37 39 40 41 42 44 45 46 47 47 48 49 49 49 49 50 50 50 50 51 51 51 51 51 51 52 52 52 52 53 54 54 55 55 56 56 56 56 56 56 56 55 55 55 55 55 55 55 55 56 55 55 55 55 55 56 56 57 57 57 56 56 57 56 55 55 56 56 57 56
20 21 22 22 24 25 26 27 28 30 32 33 35 36 38 39 40 41 42 44 45 46 47 48 48 49 49 49 50 50 51 51 51 51 51 51 51 51 50 50 50 51 51 52 52 53 54 55 55 56 56 56 57 57 57 57 56 56 56 56 56 56 56 56 56 56 56 56 55 55 56 56 56 57 58 57 57 58 58 56 55 56 57 57 57
22 22 23 24 25 26 27 29 30 32 34 35 37 38 39 41 42 43 44 45 46 47 48 48 49 49 49 50 51 51 50 50 50 50 50 50 50 50 50 50 50 50 51 51 52 53 54 55 55 56 56 57 57 57 57 57 58 58 58 57 57 57 57 57 57 57 57 57 57 56 56 56 56 56 57 57 58 58 59 58 56 56 57 57 57
24 24 25 26 27 28 29 31 32 34 35 37 38 39 41 42 43 44 45 47 47 48 49 49 49 49 50 50 50 50 50 50 51 51 51 51 51 51 51 51 51 51 51 52 53 54 54 55 55 56 57 57 56 56 57 57 58 58 59 59 58 58 58 58 58 58 58 58 58 58 58 57 57 57 57 58 58 58 59 59 58 58 58 59 58
25 26 26 28 29 30 31 32 34 35 36 38 39 41 42 43 45 46 47 47 48 49 49 50 49 49 49 48 49 49 50 51 51 52 52 52 52 52 52 52 52 52 52 52 53 53 53 54 54 55 56 56 57 57 58 58 58 59 59 60 60 60 59 59 59 60 59 59 59 59 59 59 59 59 59 59 60 60 60 61 60 59 60 60 59
26 27 28 29 30 31 32 33 35 36 37 39 41 42 44 45 47 47 48 48 49 49 49 49 49 48 47 48 48 50 50 50 51 51 51 51 52 52 53 53 53 53 53 52 52 52 52 53 53 54 54 56 57 57 58 59 59 59 60 61 61 61 61 61 61 61 61 61 61 60 60 61 61 61 61 61 61 61 61 62 62 61 61 62 61
27 28 29 30 31 32 33 34 35 37 38 41 43 44 46 47 47 47 48 49 49 49 48 48 47 46 47 48 49 49 49 49 49 50 50 50 51 52 52 52 52 52 52 52 52 53 53 53 54 54 55 56 56 57 58 59 59 60 60 61 61 62 62 62 62 62 62 61 61 61 61 61 61 61 61 62 62 62 62 62 62 62 62 63 63
28 29 30 32 32 32 33 35 36 38 41 43 44 46 47 47 47 47 48 48 48 48 47 46 46 46 47 48 48 48 48 48 48 49 49 50 51 51 51 51 52 52 52 52 53 54 54 55 55 55 56 56 56 57 57 58 59 60 60 61 61 61 61 62 62 62 61 61 61 61 61 61 61 61 61 62 62 62 62 62 62 62 62 62 62
29 30 31 32 32 33 35 36 38 41 43 44 45 46 47 46 47 47 48 48 47 46 45 45 45 46 47 47 47 47 47 48 48 49 50 51 51 51 52 52 53 53 54 55 56 56 56 56 56 56 57 57 57 57 57 57 58 59 60 60 61 60 61 62 62 61 61 60 60 60 61 61 60 60 60 61 61 62 62 62 61 61 61 61 61
30 31 32 33 33 34 36 38 40 42 43 45 46 47 46 46 47 47 47 46 45 44 44 45 46 47 47 47 47 47 47 48 49 51 51 52 52 52 53 53 54 55 56 57 57 57 57 58 58 58 58 58 58 58 58 57 58 58 59 59 60 60 60 61 61 60 60 59 59 60 60 60 59 59 60 60 60 61 61 61 61 61 61 61 61
31 32 33 33 34 36 38 40 42 43 44 45 47 47 46 46 47 46 45 44 43 43 44 46 46 46 47 47 47 47 48 50 51 52 52 52 53 53 54 55 56 57 57 58 58 58 58 58 59 59 59 59 59 59 59 58 58 58 58 58 58 58 59 59 60 60 59 58 59 59 59 59 58 58 59 59 59 60 60 61 61 61 61 61 61
32 33 34 34 35 37 39 41 43 44 45 46 47 47 46 45 45 44 43 43 43 44 45 46 46 46 47 47 47 48 50 52 53 53 53 53 54 54 54 56 57 57 57 57 58 58 58 58 58 59 59 59 59 59 59 58 58 57 57 57 57 57 57 58 58 58 58 58 58 58 58 57 57 57 58 58 58 59 59 59 60 60 60 61 60
34 34 34 35 37 39 41 42 44 45 46 47 47 46 44 44 43 42 42 43 43 45 45 46 46 47 47 47 48 50 52 53 53 53 54 54 55 55 56 57 57 57 57 57 57 58 58 58 58 58 59 58 58 58 58 58 58 57 57 56 56 56 57 57 57 57 57 57 57 57 57 56 56 56 57 57 57 58 58 58 58 59 59 59 59
35 35 35 36 39 41 42 44 45 46 47 47 45 43 42 42 42 42 43 43 44 45 46 46 47 47 47 48 50 52 53 53 53 54 54 55 55 56 57 57 58 58 58 58 58 58 58 59 59 59 58 58 58 57 57 57 57 58 58 57 56 56 56 56 56 56 56 56 56 56 56 56 56 56 56 56 57 57 57 57 57 57 57 57 57
36 35 37 39 41 43 44 45 46 46 46 45 43 42 41 41 41 42 43 44 45 46 46 47 48 48 48 50 52 53 54 54 54 54 55 55 56 57 58 58 58 59 59 59 59 59 59 59 59 59 59 58 58 58 58 57 57 57 57 57 57 57 56 55 55 55 55 55 55 55 55 55 55 56 56 56 56 56 56 56 55 55 55 55 55
36 36 39 41 42 44 45 46 46 45 44 42 41 41 41 41 41 42 43 44 46 46 47 48 48 49 49 51 53 54 54 54 55 55 56 57 57 58 58 59 59 59 59 59 60 60 60 60 59 59 59 59 58 58 58 58 58 58 57 57 57 57 57 56 55 55 54 54 54 55 54 54 54 55 55 55 55 54 54 54 54 53 53 53 53
37 38 41 42 43 44 45 45 44 43 42 41 40 40 41 41 42 43 44 45 46 47 48 49 49 49 51 53 54 54 54 55 56 56 57 58 58 58 59 59 59 60 60 60 60 60 60 60 60 59 59 59 58 58 57 57 57 57 57 57 56 56 56 56 56 55 55 54 54 54 54 53 53 54 54 53 53 53 52 52 51 51 51 51 51
38 40 42 43 44 44 43 43 42 41 40 40 40 41 41 42 43 44 45 46 47 48 49 50 50 50 52 54 55 55 56 56 57 57 58 59 59 59 60 60 60 60 60 61 61 61 60 60 60 59 59 59 58 57 57 57 56 56 56 56 56 55 55 55 55 54 54 54 54 54 53 52 52 53 52 52 51 51 50 50 49 49 49 49 50
40 42 43 43 43 42 42 41 40 40 40 40 40 41 42 43 43 44 45 47 48 49 50 50 51 52 54 55 55 56 57 58 58 59 59 60 60 61 61 61 61 61 62 61 61 61 60 60 60 59 59 58 58 57 56 56 55 54 54 54 55 54 54 54 54 54 54 54 54 53 52 52 52 52 51 51 50 49 48 48 48 48 48 48 48
42 42 42 42 42 41 40 40 40 39 39 40 41 41 42 43 44 45 47 48 49 50 50 51 52 53 55 56 57 58 58 59 59 60 60 61 61 61 62 62 62 62 62 62 61 61 60 60 59 58 58 57 56 55 55 54 53 53 53 53 53 53 53 53 53 53 53 53 53 53 52 51 51 51 50 49 48 48 47 47 47 46 46 46 46
43 42 41 41 40 40 39 39 39 39 40 40 41 42 43 44 45 46 48 49 50 50 51 52 53 55 56 57 58 59 59 60 60 61 61 62 62 62 62 63 63 63 62 62 61 61 60 59 58 57 57 56 55 54 53 52 52 52 52 52 52 52 52 52 52 52 51 51 51 51 51 50 50 50 49 48 47 46 46 45 45 45 45 44 44
42 41 39 39 39 39 39 39 39 40 40 41 42 43 44 45 46 47 48 49 50 51 52 53 55 56 57 58 59 59 60 61 61 62 62 63 63 63 63 63 63 63 62 62 61 60 60 59 57 56 55 54 53 52 51 51 51 50 50 50 51 51 51 51 51 50 50 50 50 49 49 48 48 48 48 47 46 45 45 44 43 43 43 43 43
41 39 38 38 39 39 39 39 39 40 41 41 43 44 45 46 47 48 49 50 51 52 54 55 56 57 58 59 60 60 61 61 62 62 63 63 63 64 64 63 63 62 61 61 60 59 58 58 57 55 54 52 51 50 50 50 50 49 49 49 49 49 49 49 49 49 49 49 48 47 47 46 47 46 46 45 45 44 44 43 43 42 42 41 41
40 38 38 38 39 39 39 39 40 41 41 42 43 45 46 47 48 49 50 51 52 54 55 56 57 58 59 60 60 61 61 62 62 63 63 64 64 64 63 63 62 61 60 59 59 58 57 56 55 54 52 51 49 49 49 49 48 48 48 47 48 48 48 48 48 47 47 46 46 45 44 44 44 43 43 43 43 43 43 42 42 41 41 40 39
39 38 37 38 38 39 39 40 40 41 42 43 44 45 46 48 49 50 51 52 54 55 56 57 58 59 59 60 60 61 62 62 62 63 63 63 63 63 62 62 61 60 59 58 57 56 55 54 53 52 51 49 48 48 48 48 47 47 47 46 45 45 45 45 45 45 45 44 43 43 42 41 41 41 40 40 40 41 41 41 40 40 39 39 38
38 38 38 38 39 39 40 40 41 42 43 44 45 46 47 49 50 51 52 54 55 56 57 58 58 59 59 60 61 61 62 62 62 63 63 63 62 62 61 61 60 59 58 57 55 54 52 51 50 49 48 47 47 47 47 46 46 46 45 44 43 43 43 43 43 43 42 42 41 40 40 39 38 38 38 38 38 38 38 38 38 37 37 37 37
38 38 38 38 39 39 40 41 42 43 44 45 46 47 48 50 51 52 53 55 56 56 57 57 58 59 59 60 61 61 62 62 62 62 62 62 62 61 60 59 58 57 56 54 53 51 50 49 47 46 46 45 45 45 45 45 44 44 43 42 41 40 40 40 40 40 40 39 39 38 37 37 36 36 36 36 36 36 35 35 35 35 35 34 34
37 38 38 38 39 39 40 42 42 43 44 45 46 48 49 51 52 53 54 55 56 56 57 57 58 59 59 60 61 61 62 62 62 62 61 61 60 60 59 58 57 55 53 52 50 49 48 46 45 44 44 44 43 43 43 43 42 42 41 40 38 37 37 36 36 36 36 36 36 36 35 35 34 34 34 34 33 33 33 33 32 32 32 32 33
37 38 38 38 39 40 41 42 43 44 45 46 48 49 50 52 53 53 54 55 55 56 56 57 58 59 60 60 61 61 62 62 61 61 60 60 59 59 58 56 54 52 50 49 48 47 45 44 43 43 43 42 41 41 41 40 40 39 38 37 35 34 34 33 32 32 32 33 34 34 33 33 32 32 32 32 32 31 31 31 31 30 30 30 31
38 38 38 38 39 40 42 43 44 45 46 47 49 50 51 52 53 53 54 54 55 56 57 58 58 59 59 60 60 61 61 61 60 60 59 59 58 57 55 53 52 50 48 47 46 44 42 42 42 42 42 41 39 38 38 38 37 37 36 34 33 32 31 31 30 29 29 30 31 31 31 31 31 30 30 31 31 30 30 29 29 29 28 29 29
38 38 38 38 40 41 43 44 45 46 47 48 49 50 51 52 52 52 53 54 55 56 56 57 58 59 59 60 60 60 60 60 59 58 58 57 56 55 53 51 49 48 46 44 43 41 40 41 41 41 40 39 37 36 36 35 34 34 33 32 31 30 29 28 27 27 27 27 28 29 29 29 29 29 29 29 29 29 28 28 29 28 28 28 28
38 38 38 39 40 42 43 44 45 46 47 48 49 50 50 51 52 52 53 54 55 55 56 57 58 58 59 59 59 59 58 58 58 57 56 55 54 52 50 48 46 45 43 42 40 40 39 39 39 39 38 37 36 34 33 32 31 31 30 29 28 28 27 26 25 25 25 25 26 27 27 27 28 28 28 28 28 28 28 28 28 28 28 27 27
37 38 38 39 41 42 43 44 45 46 47 48 49 49 50 51 52 52 53 54 54 55 56 57 57 58 58 58 58 58 57 57 56 56 54 53 51 49 48 46 44 42 41 40 39 38 38 38 37 37 36 35 33 31 30 29 28 28 27 27 26 25 25 24 24 23 24 24 25 25 25 26 26 27 27 27 28 28 27 27 27 27 26 26 26
37 38 39 40 41 42 43 44 45 46 47 48 48 49 50 51 52 52 53 54 54 55 56 56 57 57 57 57 57 56 56 55 54 54 52 50 49 47 46 44 42 40 39 38 37 37 36 36 35 34 33 32 30 28 26 25 25 24 24 24 23 22 22 22 23 23 23 23 23 23 23 24 25 26 26 27 27 27 27 27 26 26 26 25 25
37 38 39 40 41 42 43 44 45 46 47 47 48 49 50 51 51 52 53 54 54 55 55 56 56 56 56 56 55 55 54 54 52 51 50 49 47 45 43 42 40 39 38 37 36 35 34 34 32 31 30 29 26 24 22 21 21 21 21 20 20 20 21 21 22 22 23 22 22 22 23 24 24 25 26 26 27 27 27 26 26 26 26 25 24
38 39 40 40 41 42 43 45 45 46 47 47 48 49 50 50 51 52 53 54 54 54 55 55 55 55 55 55 54 54 53 51 50 49 48 47 45 43 41 40 38 37 37 35 34 33 33 32 30 29 28 26 23 21 19 18 18 18 18 17 18 18 19 20 20 21 21 20 20 21 21 23 24 24 25 26 26 26 26 26 25 25 25 25 24
38 39 40 41 42 43 44 45 45 46 46 47 48 49 50 51 52 52 53 53 53 54 54 54 54 54 54 53 53 52 50 49 48 47 46 45 43 41 39 38 37 36 35 33 32 31 31 29 27 26 25 23 20 18 17 17 16 16 15 15 15 16 17 18 19 19 19 19 19 20 21 22 23 24 24 25 25 25 25 25 25 25 25 24 24
39 40 41 41 42 43 44 45 45 46 47 47 48 49 50 51 51 52 52 53 53 53 53 53 53 53 53 52 51 49 48 47 46 45 44 43 41 39 38 37 36 34 33 32 31 30 28 26 24 24 23 22 19 18 16 16 16 16 15 15 14 15 15 16 17 18 18 18 19 20 21 22 22 23 24 24 24 24 24 25 24 24 24 23 24
39 40 41 41 42 43 44 45 46 46 47 47 48 49 50 51 51 52 52 52 52 53 53 53 53 52 52 51 49 47 46 45 45 43 42 41 39 38 37 36 34 33 32 30 29 28 26 24 22 22 22 20 18 17 16 16 15 14 14 14 14 15 15 15 16 17 17 18 19 20 20 20 21 21 22 22 22 22 23 23 24 24 23 23 23
39 40 41 42 42 43 44 45 46 47 47 47 48 48 49 50 51 51 51 51 52 52 52 52 52 52 50 48 47 46 45 44 43 41 40 39 37 37 36 35 33 32 30 29 28 26 24 22 21 21 20 18 17 16 16 16 14 12 11 11 12 13 14 14 14 15 16 16 17 18 18 18 19 19 20 20 20 21 21 22 22 23 23 23 23
40 41 41 42 43 44 45 45 46 47 47 47 48 48 49 50 50 51 51 51 51 51 51 52 51 50 48 46 45 44 43 42 41 40 39 38 37 36 35 33 32 30 29 28 27 25 23 20 19 20 19 17 15 15 16 15 13 12 9 8 8 10 11 12 12 13 14 14 15 15 16 16 17 17 18 19 19 20 20 21 21 22 22 23 23
40 41 41 42 43 44 45 46 46 46 47 47 48 48 49 49 50 50 50 50 51 51 51 50 49 47 46 44 43 43 42 41 40 39 37 36 36 35 34 32 30 29 28 27 26 24 22 20 18 18 17 16 14 14 15 14 13 12 10 7 5 5 6 8 10 12 12 12 13 13 13 13 14 14 14 15 16 17 18 19 20 21 21 22 23
40 41 42 43 43 44 45 46 46 46 47 47 48 48 49 49 49 49 49 50 50 50 50 48 47 45 44 43 42 41 40 40 39 38 36 35 35 35 33 31 29 28 28 26 24 22 21 20 18 17 16 15 14 14 14 14 12 11 10 7 4 2 3 6 8 10 11 12 12 12 12 11 12 12 11 12 13 14 15 16 18 19 20 21 22
41 41 42 43 44 44 45 45 46 46 47 47 48 48 48 48 48 49 49 50 50 49 48 46 45 44 43 42 41 40 40 39 38 37 36 35 34 34 32 30 28 27 27 25 23 22 21 20 18 17 16 15 14 14 13 13 12 10 8 7 5 3 1 3 6 8 9 10 11 12 12 11 11 11 11 11 12 12 13 15 16 17 18 19 20
Wind_Direction
278 278 277 276 276 276 276 277 279 281 284 285 287 288 290 291 293 295 296 297 298 299 300 300 300 300 298 297 297 296 295 295 295 296 296 296 295 295 294 292 291 290 289 288 286 285 284 283 283 283 282 281 281 281 280 280 279 278 277 276 276 275 274 274 273 273 272 272 271 270 270 269 269 268 268 267 267 266 265 265 264 264 263 262 261
278 278 278 276 276 276 276 278 281 283 285 287 288 290 291 293 295 297 297 298 300 301 301 302 302 301 300 299 298 297 296 295 295 295 295 296 296 295 294 293 291 290 289 288 286 285 284 284 283 283 282 282 281 281 281 280 279 278 277 276 275 275 274 274 274 273 272 272 272 271 271 270 269 268 268 268 267 266 266 265 265 264 264 263 261
278 278 277 276 276 276 278 280 283 285 287 288 290 292 293 295 297 298 299 299 300 301 302 302 302 302 301 300 299 298 297 296 295 295 295 295 295 294 293 292 291 290 289 288 286 285 284 284 283 283 282 281 281 281 280 280 279 279 278 276 275 275 274 274 273 273 272 273 273 271 270 270 270 269 268 268 267 267 266 266 265 265 264 263 262
277 277 276 276 277 278 281 283 285 286 289 291 293 294 296 297 298 299 300 300 300 301 302 302 302 302 302 301 300 299 298 297 296 295 295 294 294 293 293 292 291 289 288 287 286 285 284 283 283 282 281 281 280 280 280 279 279 279 278 277 275 274 274 273 273 272 272 272 272 271 270 271 269 268 269 268 268 267 267 266 266 265 265 264 263
277 276 276 276 278 281 284 286 287 289 291 294 295 296 297 298 299 300 300 300 301 302 303 303 303 302 302 301 301 301 300 299 298 297 296 295 294 294 293 293 291 290 288 287 286 285 284 283 283 282 281 281 280 280 279 279 279 278 278 277 275 274 273 273 273 272 272 271 270 270 271 270 268 269 270 269 268 267 267 266 266 265 265 264 263
277 276 276 279 281 284 287 289 291 292 293 295 296 297 298 299 300 301 301 301 302 303 304 304 303 303 303 302 302 301 300 300 299 297 296 295 295 294 294 293 292 291 289 288 286 285 285 284 283 282 281 281 280 280 279 279 279 278 278 277 276 275 274 273 273 272 271 271 270 270 269 269 269 270 270 269 268 267 267 267 266 265 265 264 264
276 277 279 282 284 287 289 291 292 294 295 295 296 298 299 300 301 302 302 302 303 304 305 305 304 304 303 303 302 301 300 299 299 298 297 296 296 295 294 293 292 291 290 288 287 286 285 285 284 283 282 281 280 280 279 279 278 278 277 277 276 275 274 273 273 272 272 271 270 269 269 269 270 270 269 269 269 268 267 267 266 266 265 265 264
277 279 282 285 287 289 291 292 293 294 295 297 298 299 300 301 302 302 303 304 305 305 305 305 304 304 303 302 302 301 300 300 299 298 297 297 296 295 295 294 292 291 290 288 287 286 286 285 284 283 282 281 280 279 279 278 278 277 277 276 276 275 274 273 273 272 271 271 270 270 269 269 269 269 268 268 269 268 267 267 267 266 265 265 264
280 282 284 287 289 291 292 292 294 295 297 298 299 300 300 301 303 304 305 305 305 305 305 305 304 303 303 302 302 301 300 299 299 298 298 297 297 296 296 295 294 292 291 289 288 287 286 285 284 283 282 281 280 279 278 278 277 276 276 275 275 274 273 273 272 272 271 271 270 269 269 269 269 268 268 268 268 268 267 267 267 267 266 265 264
284 284 286 288 291 292 293 294 295 297 298 299 300 301 301 302 304 305 305 305 305 305 305 304 304 303 302 302 302 301 300 300 300 300 299 299 299 298 298 297 295 294 293 291 290 289 288 286 285 284 283 282 281 280 279 278 277 276 275 275 274 273 273 272 272 271 271 270 270 269 269 269 268 268 267 267 267 267 267 267 267 266 266 265 265
286 287 287 289 292 293 294 295 297 298 299 300 301 302 303 304 305 305 305 305 304 304 304 304 303 303 303 303 302 302 302 302 302 302 301 301 300 299 299 298 296 295 294 293 292 290 289 288 286 285 284 283 281 280 279 278 277 276 275 275 274 273 273 272 271 271 271 270 270 269 269 268 268 268 267 267 267 267 267 267 267 266 266 265 265
287 287 289 291 293 294 296 297 298 299 300 301 303 304 305 305 305 305 305 305 304 305 305 305 305 304 304 304 304 305 305 304 303 303 302 302 301 300 300 298 297 296 295 294 293 292 291 289 288 286 285 283 282 281 280 279 278 277 276 275 274 273 272 272 271 271 270 270 270 269 269 269 268 268 268 267 267 267 267 267 267 267 266 265 265
288 288 290 292 293 295 296 298 299 300 302 304 305 305 305 305 305 305 305 305 305 306 306 306 306 305 305 306 306 306 305 304 304 303 303 302 302 301 301 300 299 298 297 296 295 294 293 291 290 288 286 285 283 282 281 280 278 277 276 275 274 273 272 271 271 270 270 269 269 269 268 268 268 268 268 267 267 267 267 267 267 266 266 266 265
289 289 291 293 294 296 297 299 301 302 304 305 306 306 306 306 306 306 306 306 306 306 306 306 306 306 306 306 306 305 305 305 304 304 304 303 303 302 302 301 300 299 298 297 296 295 294 292 291 289 287 286 285 284 282 281 279 278 276 275 274 273 272 271 271 270 269 269 269 269 268 268 268 268 268 267 267 267 267 267 267 267 266 266 266
289 290 292 295 296 297 299 301 303 304 305 306 306 306 306 306 306 306 307 307 307 307 306 306 306 307 307 306 306 306 305 305 305 304 304 304 303 302 302 301 300 299 298 297 296 295 294 293 291 290 288 287 286 284 283 282 280 278 277 275 274 274 272 271 271 270 269 269 269 268 268 267 267 267 267 267 267 267 266 267 267 267 267 266 266
289 291 294 297 298 299 301 303 304 305 306 306 307 307 307 306 306 307 307 307 307 307 306 306 306 307 307 307 307 306 306 306 305 305 304 304 303 302 301 301 300 298 297 297 296 295 294 292 291 290 289 288 286 285 284 282 281 279 277 276 274 274 273 271 270 269 268 269 268 268 267 267 267 267 267 267 267 266 266 266 266 266 266 266 266
291 294 297 299 299 301 303 304 305 306 306 307 307 307 307 307 307 307 307 307 306 306 306 307 307 307 307 307 307 306 306 306 306 305 305 304 303 302 301 300 300 298 297 297 296 295 294 292 291 289 288 287 286 285 284 283 281 280 278 276 275 274 272 271 270 269 268 268 268 267 267 267 267 267 267 267 266 266 266 266 265 265 265 265 266
294 297 299 300 300 302 304 305 305 306 307 307 308 308 307 307 307 307 306 306 306 306 307 307 307 307 307 307 306 306 306 307 306 305 305 304 304 303 301 301 300 299 298 297 296 295 294 293 291 290 289 287 286 285 284 283 281 280 278 276 275 273 272 271 270 269 268 268 268 268 267 267 267 267 267 267 266 266 266 265 265 264 264 264 265
296 299 299 300 301 303 304 305 306 307 307 308 308 307 306 307 307 306 306 307 307 307 308 308 307 307 307 306 306 307 307 307 307 305 305 304 304 303 302 302 301 300 299 298 297 296 295 294 292 291 290 288 287 285 284 282 281 280 278 277 275 273 272 271 270 269 268 268 268 267 267 267 267 267 267 267 267 267 266 265 264 264 263 263 263
298 299 300 301 303 304 305 305 306 307 307 308 308 306 306 307 307 307 308 308 308 308 308 308 308 307 307 307 307 308 308 308 307 306 305 304 304 303 303 303 302 301 300 299 298 297 296 295 293 292 291 289 288 286 284 282 280 279 278 277 275 274 272 271 270 269 268 268 268 267 267 267 267 267 267 267 267 267 266 265 264 263 263 262 262
299 301 301 302 304 304 305 306 306 307 307 307 307 306 307 307 307 308 308 308 308 308 308 308 308 308 307 308 308 309 309 308 307 306 305 305 304 304 304 303 302 302 301 300 299 298 297 296 294 293 292 290 289 287 285 283 281 279 277 276 275 274 273 271 270 269 269 268 268 267 267 267 267 267 267 267 267 266 265 265 263 263 262 261 261
300 300 302 303 304 304 305 306 307 307 307 307 307 306 307 307 307 308 308 308 309 309 308 308 309 308 308 308 309 309 309 307 307 306 306 305 305 304 304 304 303 302 301 300 299 298 297 296 295 293 292 291 289 287 285 283 281 279 277 275 274 273 273 271 270 270 269 268 268 267 267 267 266 266 266 266 266 265 264 264 262 262 261 261 261
301 300 303 303 304 305 306 306 307 307 307 307 306 306 306 307 307 308 308 309 309 309 309 309 309 308 308 309 309 309 308 308 307 307 306 306 305 305 305 304 303 303 302 301 300 299 297 296 295 293 292 290 289 287 285 283 281 279 277 276 274 272 271 271 270 269 269 268 267 267 267 266 266 266 266 265 265 264 263 262 261 261 261 261 261
301 301 303 304 304 306 306 306 306 306 306 306 306 306 306 307 308 308 309 309 309 309 309 309 309 308 309 310 310 309 309 308 308 307 307 307 306 306 305 305 304 303 302 301 300 299 297 296 295 293 292 290 289 287 285 283 281 279 276 275 274 273 271 270 269 269 268 268 267 267 266 266 265 265 265 265 264 263 262 261 260 260 260 261 261
302 303 304 305 305 306 306 306 306 306 306 306 306 307 307 308 309 309 309 310 310 310 310 310 309 309 310 310 310 309 309 309 308 308 308 307 307 306 306 305 304 303 302 301 300 299 297 296 295 293 292 290 289 287 285 283 281 279 277 275 273 272 271 270 269 268 268 267 267 266 265 265 264 264 264 263 262 262 261 260 259 259 260 260 261
304 304 305 305 306 306 306 306 306 306 306 306 307 308 308 309 309 309 310 310 310 310 310 310 310 310 310 310 310 310 310 309 309 308 308 308 307 307 306 305 304 303 303 301 300 299 298 296 294 293 291 290 288 287 285 283 280 279 277 275 273 272 271 269 268 268 267 267 266 266 265 264 263 263 263 262 261 260 259 258 258 259 259 260 260
305 305 304 305 306 306 305 306 306 306 307 307 308 308 309 309 309 310 310 311 311 311 311 311 310 310 311 311 311 310 310 310 309 309 308 308 308 307 306 306 305 304 303 302 300 299 297 296 294 293 291 290 288 287 285 283 281 279 277 276 274 272 271 270 268 267 266 266 265 265 264 263 262 262 261 260 260 258 257 257 257 258 259 258 259
305 305 305 306 306 305 306 306 307 307 308 308 309 309 310 310 310 311 311 311 311 311 311 311 311 311 311 311 311 311 310 310 310 309 309 308 308 307 307 306 305 304 303 302 300 299 297 296 294 293 291 290 288 287 285 283 281 279 277 276 274 272 271 269 268 267 265 264 264 264 264 263 261 260 260 259 258 257 256 257 257 257 257 257 258
306 305 306 306 306 305 306 307 307 308 308 309 310 310 311 311 311 311 312 312 312 312 312 312 311 312 312 311 311 311 311 311 310 310 310 309 309 308 307 306 305 304 303 302 301 299 297 296 294 293 292 290 288 286 285 283 281 279 277 275 274 272 270 269 267 266 265 264 264 264 263 262 260 259 258 257 256 255 255 256 256 256 255 255 257
307 306 306 306 306 306 307 307 308 308 309 309 310 311 311 311 311 312 312 312 312 312 312 312 312 312 312 312 312 312 311 311 311 311 310 310 309 309 308 307 306 305 304 302 301 299 298 296 295 293 291 290 288 286 285 284 282 280 278 275 274 272 270 268 267 265 264 263 263 262 261 260 259 258 257 255 254 254 254 255 255 254 254 255 256
308 307 305 306 306 307 307 308 308 309 309 310 311 311 312 312 312 312 312 313 313 313 313 313 313 313 313 313 313 313 312 312 312 312 311 311 310 309 309 308 307 306 304 303 302 300 298 297 295 293 291 289 288 286 285 284 282 280 278 276 274 273 270 268 266 264 263 262 261 261 260 259 258 256 255 254 253 253 253 253 253 252 252 253 255
308 306 306 306 307 307 308 308 309 310 310 311 311 312 312 312 313 313 313 313 313 313 314 314 314 314 314 314 314 313 313 313 313 312 312 312 311 310 309 308 307 306 305 304 302 301 299 298 296 293 291 289 288 287 285 284 282 280 278 276 274 273 271 269 267 264 262 261 260 259 258 257 256 254 253 252 252 252 252 251 251 251 251 252 252
307 307 307 307 307 308 308 309 310 311 311 312 312 312 313 313 313 313 314 314 314 314 314 315 315 315 315 315 315 314 314 314 314 313 313 312 312 311 310 309 308 307 306 305 303 302 301 299 297 295 292 290 288 287 285 284 282 280 278 276 274 273 271 269 266 264 261 259 259 257 256 255 253 252 251 251 251 250 250 250 250 250 250 251 249
308 307 307 308 308 308 309 310 311 311 312 312 312 313 313 313 314 314 314 315 315 315 315 316 316 316 316 316 316 315 315 315 314 314 314 313 312 312 311 310 309 308 307 306 304 303 302 300 299 297 294 292 290 288 286 283 282 280 278 276 274 273 271 269 266 263 259 257 256 254 253 252 251 250 249 248 248 248 248 248 249 249 249 248 248
309 309 308 309 309 309 310 311 311 312 312 312 313 313 314 314 315 315 315 316 316 316 316 316 317 317 317 317 316 316 316 315 315 315 314 314 313 312 312 311 310 309 308 307 305 304 303 301 300 298 297 294 292 290 287 284 282 280 278 275 274 272 271 269 266 262 257 254 252 250 249 249 248 248 247 245 245 245 246 246 246 246 246 246 245
310 310 310 310 310 310 311 311 312 312 313 313 314 314 314 315 316 316 316 317 317 317 317 317 317 318 318 317 317 317 316 316 316 316 315 315 314 313 313 312 311 310 309 308 306 305 304 302 301 300 298 296 294 291 288 284 282 280 277 274 272 271 270 268 265 260 256 252 250 247 246 246 245 245 243 242 242 244 244 243 242 243 244 245 243
311 311 310 310 310 311 312 312 312 313 313 314 314 315 315 316 316 317 317 317 317 317 318 318 318 318 318 318 318 317 317 317 317 317 316 316 315 314 314 313 312 311 310 309 308 307 305 304 303 302 300 298 295 293 289 286 282 279 276 273 271 269 268 266 263 259 254 251 248 245 244 243 242 241 239 239 241 241 240 239 240 242 243 243 242
312 311 311 311 311 312 313 313 313 314 314 315 315 316 316 317 317 318 318 318 318 318 319 319 319 319 319 319 319 319 318 318 318 318 317 317 316 316 315 315 314 313 311 310 309 308 307 306 305 304 303 301 298 295 291 287 283 279 275 272 269 267 265 263 260 257 253 249 245 242 241 241 239 237 236 237 239 239 237 237 239 241 242 242 241
313 312 312 312 313 313 313 314 314 315 315 316 317 317 317 318 318 318 319 319 319 320 320 320 320 320 320 320 320 320 320 319 319 319 318 318 318 317 317 316 316 314 313 312 311 310 309 309 308 307 305 303 300 297 293 288 284 279 274 270 267 265 263 260 257 254 250 246 243 241 240 237 235 234 234 235 237 237 237 237 238 239 240 240 240
314 314 314 314 314 315 315 315 316 316 317 317 318 318 318 319 319 319 319 320 320 320 321 321 321 321 321 321 321 321 321 320 320 320 319 319 319 319 318 318 317 316 315 314 313 312 311 311 311 310 308 305 302 298 294 289 284 279 274 269 265 262 259 258 255 250 246 243 242 241 238 234 233 233 233 234 236 236 236 237 238 238 238 238 237
316 316 316 316 316 316 317 317 317 317 318 318 319 319 319 319 320 320 320 321 321 321 321 321 321 321 322 322 322 322 321 321 321 321 321 321 321 320 319 319 319 318 317 315 315 314 313 313 313 312 310 308 305 301 296 290 284 280 275 268 263 259 257 254 251 247 245 243 241 239 235 233 232 233 233 234 235 235 236 236 236 236 235 235 234
317 317 317 317 317 318 318 318 318 319 319 319 320 320 320 320 320 321 321 321 322 322 322 322 322 322 322 323 323 323 322 322 322 322 322 322 322 322 321 320 320 319 318 317 316 316 316 315 315 315 314 313 310 306 300 293 287 282 277 269 262 258 255 251 248 246 244 243 240 236 234 233 233 234 234 234 235 234 235 236 235 234 233 231 230
319 319 319 319 318 319 319 319 319 320 320 320 321 321 321 321 321 321 322 322 323 323 323 323 323 323 323 323 324 324 324 323 323 324 323 323 323 323 322 322 322 321 320 318 318 318 318 316 316 318 319 319 318 312 306 299 292 286 280 272 263 257 253 248 245 244 242 239 235 233 233 233 233 234 234 234 235 235 235 236 235 232 230 228 225
319 319 319 319 319 319 320 320 320 321 321 322 322 322 322 322 322 322 323 323 323 324 324 324 324 324 324 324 324 325 325 325 325 325 325 325 324 324 323 323 323 323 322 320 319 320 319 318 319 321 323 324 324 319 311 304 298 291 283 276 267 259 252 247 243 241 238 235 233 232 232 232 232 233 233 233 234 233 233 234 233 231 228 224 221
320 320 320 320 321 321 321 321 322 322 323 323 323 323 322 322 323 323 324 324 324 324 325 325 325 325 325 325 325 326 326 326 327 327 326 326 326 325 325 325 325 324 323 321 321 321 320 320 322 324 325 326 326 324 318 311 303 294 284 276 268 260 253 246 241 237 234 232 232 231 231 230 231 232 233 233 233 232 232 231 230 228 226 221 218
321 321 322 322 322 322 322 323 323 323 324 324 324 324 323 323 324 324 324 325 325 325 325 325 325 325 326 326 326 327 327 328 328 328 328 327 327 326 326 326 326 325 324 322 322 322 321 322 324 325 326 327 327 328 327 323 314 301 286 275 267 260 253 247 241 235 232 230 230 231 231 232 232 232 232 232 231 229 228 228 226 225 223 219 216
323 323 323 323 323 323 323 323 323 324 324 324 325 324 324 324 325 325 325 326 326 326 326 326 326 326 327 327 328 328 328 329 329 329 329 328 328 328 328 328 327 326 324 323 323 322 322 324 327 327 327 329 329 331 333 332 328 318 298 279 268 259 252 246 240 233 228 227 228 229 231 231 231 232 232 230 229 226 224 223 223 222 220 218 215
324 324 324 324 324 324 324 324 324 325 325 325 325 325 325 325 326 326 326 327 327 327 327 327 327 327 328 328 329 329 329 330 330 331 330 329 329 329 329 329 328 326 324 323 323 322 323 325 327 327 328 329 330 333 335 336 337 335 321 295 273 261 251 242 234 226 223 223 225 227 229 230 231 232 231 229 226 224 222 220 220 221 219 217 214
324 324 324 324 324 325 325 325 325 325 326 326 326 326 327 327 327 327 328 328 328 328 328 328 328 328 329 330 330 330 330 331 331 331 331 331 331 330 330 330 329 327 325 323 322 322 324 325 326 327 327 328 328 331 335 339 341 343 342 330 294 262 242 228 220 218 218 219 220 221 223 224 224 223 221 219 218 218 218 217 217 216 215 214 212
325 325 325 325 325 325 325 325 326 326 326 326 327 327 328 328 328 328 329 329 329 329 329 329 329 330 330 331 331 331 331 332 332 332 332 332 332 332 331 331 331 329 327 324 323 323 323 324 325 325 325 325 326 328 332 337 340 341 346 350 345 292 225 214 214 214 214 214 214 213 213 212 209 207 206 206 207 208 209 210 209 209 209 209 210
326 326 326 326 326 326 326 326 326 327 327 328 328 328 329 329 329 330 330 330 330 330 330 330 331 331 331 332 332 332 332 333 333 333 333 333 334 333 333 333 333 331 329 326 325 324 323 323 323 323 322 322 323 325 327 331 334 334 336 343 349 351 292 214 211 208 206 207 209 208 207 205 202 201 201 201 201 201 202 202 201 201 202 204 206